Location: Peterborough
(44.3091°N, 78.3197°W)
Time: 16:39:05
(UTC-04:00)

Transit 2A - Pass Details

Date: 22 March 2023
Orbit: 591 x 964 km, 66.7° (Epoch: 04 June)

Event Time Altitude Azimuth Distance (km) Brightness Sun altitude
Rises 14:29:04 0° 331° (NNW) 3,612 9.2 43.8°
Reaches altitude 10° 14:31:51 10° 340° (NNW) 2,689 8.6 43.6°
Maximum altitude 14:37:39 36° 46° (NE) 1,495 7.5 43.2°
Drops below altitude 10° 14:43:24 10° 111° (ESE) 2,675 8.9 42.7°
Sets 14:46:08 0° 120° (ESE) 3,590 9.5 42.4°
